FW8291 Weather Reports


time (UTC)temp
F
wind
direction
speed
knots
gust
knots
rain 1hr
in
rain 24hr
in
rain mn
in
humidity
%
barometer
mb
20260503223906 61 319 0.9 3.5 0.00 0.02 0.02 74 1011.8
20260503223406 61 268 1.7 2.6 0.00 0.02 0.02 75 1011.9
20260503222905 61 320 0.9 2.6 0.00 0.02 0.02 74 1011.8
20260503222407 61 345 1.7 2.6 0.00 0.02 0.02 74 1011.9
20260503221906 61 331 0.9 2.6 0.00 0.02 0.02 74 1011.8
20260503221405 61 330 0.9 2.6 0.00 0.02 0.02 75 1011.9
20260503220906 61 223 1.7 2.6 0.00 0.02 0.02 75 1011.8
20260503220855 61 337 1.7 2.6 0.00 0.02 0.02 76 1011.8
20260503215905 61 331 0.9 3.5 0.00 0.02 0.02 76 1011.8
20260503215404 62 340 1.7 3.5 0.00 0.02 0.02 76 1011.8
20260503214906 62 358 0.0 2.6 0.00 0.02 0.02 78 1011.8
20260503214626 62 341 0.9 1.7 0.00 0.02 0.02 77 1011.9
20260503213905 62 336 0.0 2.6 0.00 0.02 0.02 76 1011.9
20260503213404 62 338 0.9 3.5 0.00 0.02 0.02 75 1011.8
20260503212905 62 327 0.9 3.5 0.00 0.02 0.02 74 1011.8
20260503212404 62 344 1.7 2.6 0.00 0.02 0.02 75 1011.8
20260503212127 62 334 0.9 2.6 0.00 0.02 0.02 75 1011.8
20260503211403 62 337 0.0 1.7 0.00 0.02 0.02 76 1011.8
20260503210905 62 326 0.9 1.7 0.00 0.02 0.02 74 1011.9
20260503210403 63 317 0.9 2.6 0.00 0.02 0.02 73 1011.7
20260503205904 63 358 1.7 2.6 0.00 0.02 0.02 73 1011.7
20260503205403 63 283 0.0 1.7 0.00 0.02 0.02 72 1011.8
20260503205345 64 296 0.0 1.7 0.00 0.02 0.02 72 1011.8
20260503204403 64 204 0.0 0.9 0.00 0.02 0.02 73 1011.9
20260503204128 64 261 0.0 2.6 0.00 0.02 0.02 71 1011.9
20260503203402 64 302 0.0 2.6 0.00 0.02 0.02 71 1011.8
20260503202904 63 117 0.0 1.7 0.00 0.02 0.02 73 1011.8
20260503202622 63 192 0.0 2.6 0.00 0.02 0.02 71 1012.0
20260503202127 63 89 0.0 2.6 0.00 0.02 0.02 72 1011.9
20260503201359 63 353 0.9 1.7 0.00 0.02 0.02 73 1011.9
20260503200902 63 343 0.0 2.6 0.00 0.02 0.02 72 1011.8
20260503200359 62 314 0.9 2.6 0.00 0.02 0.02 76 1011.9
20260503195903 62 278 0.9 2.6 0.00 0.02 0.02 76 1012.0
20260503195401 61 252 0.0 2.6 0.00 0.02 0.02 75 1012.0
20260503194903 61 104 0.0 4.3 0.00 0.02 0.02 77 1012.0
20260503194402 61 327 0.9 4.3 0.00 0.02 0.02 78 1011.9
20260503193900 60 343 0.9 2.6 0.00 0.02 0.02 79 1011.9
20260503193359 60 312 0.9 2.6 0.00 0.02 0.02 81 1012.0
20260503192900 59 288 0.0 1.7 0.00 0.02 0.02 82 1011.9
20260503192359 59 159 0.0 1.7 0.00 0.02 0.02 84 1011.9
20260503191901 59 326 0.0 1.7 0.00 0.02 0.02 85 1012.0
20260503191401 58 92 0.0 1.7 0.00 0.02 0.02 85 1012.1
20260503190902 58 324 0.0 1.7 0.00 0.02 0.02 84 1012.1
20260503190400 58 340 0.0 1.7 0.00 0.02 0.02 84 1012.0
20260503185901 59 319 0.9 1.7 0.00 0.02 0.02 83 1012.0
20260503185358 59 317 0.0 2.6 0.00 0.02 0.02 82 1012.0
20260503184859 59 316 0.0 2.6 0.00 0.02 0.02 82 1012.0
20260503184843 59 324 0.0 1.7 0.00 0.02 0.02 82 1012.0
20260503183900 59 262 0.0 0.9 0.00 0.02 0.02 81 1012.0
20260503183358 59 207 0.0 2.6 0.00 0.02 0.02 83 1012.0
20260503182901 59 257 0.9 4.3 0.00 0.02 0.02 84 1011.9
20260503182401 59 59 0.9 4.3 0.00 0.02 0.02 84 1011.9
20260503182127 59 344 0.0 2.6 0.00 0.02 0.02 84 1011.8
20260503181359 59 345 0.0 2.6 0.00 0.02 0.02 83 1011.9
20260503181120 60 334 1.7 1.7 0.00 0.02 0.02 83 1011.9
20260503180359 60 286 0.9 2.6 0.00 0.02 0.02 83 1011.9
20260503175901 60 212 0.9 2.6 0.00 0.02 0.02 85 1011.9
20260503175358 60 343 0.9 1.7 0.00 0.02 0.02 84 1011.9
20260503175120 60 336 0.9 1.7 0.00 0.02 0.02 84 1011.8
20260503174358 60 306 0.0 0.9 0.00 0.02 0.02 83 1011.8
20260503173859 60 348 0.0 0.9 0.00 0.02 0.02 85 1011.8
20260503173622 60 66 0.0 0.9 0.00 0.02 0.02 84 1011.8
20260503172859 60 13 0.0 0.9 0.00 0.02 0.02 85 1011.8
20260503172621 59 251 0.0 0.9 0.00 0.02 0.02 85 1011.7
20260503172122 59 313 0.0 3.5 0.00 0.02 0.02 87 1011.8
20260503171358 59 6 0.0 3.5 0.01 0.02 0.02 87 1011.8
20260503170859 59 38 0.0 0.9 0.01 0.02 0.02 88 1011.9
20260503170358 59 353 0.0 2.6 0.02 0.02 0.02 89 1011.8
20260503150857 54 159 0.0 0.0 0.00 0.00 0.00 90 1011.3
20260503150354 53 21 0.0 0.0 0.00 0.00 0.00 90 1011.2
20260503131334 0 0.0 0.0 0.00 0.00 0.00 1009.9
20260503130834 0 0.0 0.0 0.00 0.00 0.00 1009.9
20260503130331 0 0.0 0.0 0.00 0.00 0.00 1009.7
20260503110822 53 133 0.0 0.0 0.00 0.00 0.00 89 1009.8
20260503110321 53 133 0.0 0.0 0.00 0.00 0.00 90 1009.8
20260503090318 53 128 0.0 0.0 0.00 0.00 0.00 89 1010.3
20260503081318 53 128 0.0 0.0 0.00 0.00 0.00 89 1010.8
20260503080819 53 128 0.0 0.0 0.00 0.00 0.00 89 1010.7
20260503080544 53 128 0.0 0.0 0.00 0.00 0.00 89 1010.8
20260503072816 54 207 0.0 0.0 0.00 0.00 0.00 89 1010.7
20260503072317 54 331 0.0 0.0 0.00 0.00 0.00 89 1010.7
20260503071816 54 245 0.0 0.9 0.00 0.00 0.00 89 1010.7
20260503071316 54 245 0.0 0.9 0.00 0.00 0.00 89 1010.7
20260503070817 54 241 0.0 0.9 0.00 0.00 0.00 89 1010.7
20260503070316 54 237 0.0 0.9 0.00 0.00 0.00 89 1010.8
20260503060314 54 288 0.0 0.0 0.00 0.00 0.00 89 1011.0
20260503055031 54 288 0.0 0.0 0.00 0.00 0.00 89 1011.1
20260503054314 54 319 0.0 0.0 0.00 0.00 0.00 89 1011.2
20260503053815 54 319 0.0 0.0 0.00 0.00 0.00 89 1011.3
20260503053314 54 319 0.0 0.9 0.00 0.00 0.00 89 1011.2
20260503052815 54 319 0.0 0.9 0.00 0.00 0.00 89 1011.3
20260503052754 54 279 0.0 0.0 0.00 0.00 0.00 89 1011.3
20260503052032 54 279 0.0 0.0 0.00 0.00 0.00 89 1011.3
20260503051313 54 281 0.0 0.0 0.00 0.00 0.00 89 1011.3
20260503050815 54 286 0.0 0.0 0.00 0.00 0.00 89 1011.4
20260503050532 54 286 0.0 0.0 0.00 0.00 0.00 89 1011.3
20260503045815 54 286 0.0 0.9 0.00 0.00 0.00 89 1011.3
20260503045313 54 285 0.0 0.9 0.00 0.00 0.00 89 1011.3
20260503045031 54 302 0.0 0.0 0.00 0.00 0.00 89 1011.3
20260503044312 54 264 0.0 0.0 0.00 0.00 0.00 89 1011.3
20260503043814 54 247 0.0 0.0 0.00 0.00 0.00 89 1011.3
20260503043314 54 247 0.0 0.0 0.00 0.00 0.00 89 1011.3
20260503042813 54 247 0.0 0.0 0.00 0.00 0.00 89 1011.3
20260503042314 54 247 0.0 0.9 0.00 0.00 0.00 89 1011.2
20260503042038 54 247 0.0 0.9 0.00 0.00 0.00 89 1011.1
20260503041312 54 259 0.0 0.9 0.00 0.00 0.00 89 1011.1
20260503041034 54 259 0.0 0.9 0.00 0.00 0.00 89 1011.1
20260503040312 54 274 0.0 0.9 0.00 0.00 0.00 89 1011.1
20260503035813 54 274 0.0 0.0 0.00 0.00 0.00 89 1011.0
20260503035312 54 274 0.0 0.0 0.00 0.00 0.00 89 1011.0
20260503034813 54 209 0.0 0.9 0.00 0.00 0.00 89 1011.0
20260503034311 54 209 0.0 0.9 0.00 0.00 0.00 89 1011.0
20260503033813 54 319 0.0 0.0 0.00 0.00 0.00 88 1010.9
20260503033311 54 319 0.0 0.9 0.00 0.00 0.00 88 1010.8
20260503032812 54 319 0.0 1.7 0.00 0.00 0.00 88 1010.8
20260503032311 54 227 0.0 4.3 0.00 0.00 0.00 88 1010.7
20260503031812 54 142 0.0 4.3 0.00 0.00 0.00 88 1010.7
20260503031538 54 306 0.0 0.0 0.00 0.00 0.00 88 1010.6
20260503030812 54 251 0.0 0.9 0.00 0.00 0.00 88 1010.6
20260503030528 54 251 0.0 0.9 0.00 0.00 0.00 87 1010.4
20260503025812 54 259 0.0 0.9 0.00 0.00 0.00 87 1010.4
20260503025310 54 257 0.0 0.9 0.00 0.00 0.00 87 1010.4
20260503024811 55 254 0.0 0.9 0.00 0.00 0.00 87 1010.4
20260503024310 55 247 0.0 0.9 0.00 0.00 0.00 87 1010.4
20260503023811 55 247 0.0 0.9 0.00 0.00 0.00 87 1010.4
20260503023309 55 276 0.0 1.7 0.00 0.00 0.00 87 1010.4
20260503023030 55 274 0.0 1.7 0.00 0.00 0.00 86 1010.4
20260503022309 55 231 0.0 0.9 0.00 0.00 0.00 86 1010.4
20260503022255 55 265 0.0 0.9 0.00 0.00 0.00 87 1010.4
20260503021309 55 329 0.0 0.9 0.00 0.00 0.00 86 1010.5
20260503020810 55 326 0.0 0.9 0.00 0.00 0.00 86 1010.5
20260503020309 55 279 0.0 0.9 0.00 0.00 0.00 86 1010.5
20260503015810 55 319 0.0 0.9 0.00 0.00 0.00 86 1010.5
20260503015309 56 330 0.0 0.0 0.00 0.00 0.00 85 1010.6
20260503015033 56 247 0.0 0.9 0.00 0.00 0.00 85 1010.6
20260503014309 56 268 0.0 0.9 0.00 0.00 0.00 85 1010.6
20260503013809 56 338 0.0 1.7 0.00 0.00 0.00 85 1010.6
20260503013308 56 337 0.0 1.7 0.00 0.00 0.00 85 1010.7
20260503012810 56 345 0.9 1.7 0.00 0.00 0.00 85 1010.7
20260503012308 56 340 0.0 1.7 0.00 0.00 0.00 85 1010.6
20260503011811 56 314 0.0 0.9 0.00 0.00 0.00 84 1010.8
20260503011308 56 329 0.0 1.7 0.00 0.00 0.00 84 1010.8
20260503011036 56 357 0.0 0.9 0.00 0.00 0.00 84 1010.7
20260503010308 56 323 0.0 1.7 0.00 0.00 0.00 84 1010.7
20260503005808 56 338 0.0 1.7 0.00 0.00 0.00 84 1010.8
20260503005307 56 347 0.9 1.7 0.00 0.00 0.00 84 1010.7
20260503005249 56 0 0.0 1.7 0.00 0.00 0.00 84 1010.7
20260503004307 57 309 0.0 1.7 0.00 0.00 0.00 84 1010.9
20260503003808 57 350 0.0 1.7 0.00 0.00 0.00 83 1010.8
20260503003307 57 1 0.9 1.7 0.00 0.00 0.00 83 1010.8
20260503002808 57 298 0.0 1.7 0.00 0.00 0.00 83 1010.7
20260503002307 57 276 0.9 2.6 0.00 0.00 0.00 82 1010.9
20260503001808 57 337 0.0 2.6 0.00 0.00 0.00 83 1010.9
20260503001306 57 348 0.0 1.7 0.00 0.00 0.00 82 1010.9
20260503001027 57 345 0.0 1.7 0.00 0.00 0.00 82 1011.0
20260503000306 57 320 0.0 1.7 0.00 0.00 0.00 82 1011.0
20260503000028 57 272 0.9 1.7 0.00 0.00 0.00 82 1011.0
20260502235533 57 343 0.9 1.7 0.00 0.00 0.00 83 1011.1
20260502234808 57 345 0.0 2.6 0.00 0.00 0.00 82 1011.0
20260502234306 58 314 1.7 2.6 0.00 0.00 0.00 82 1011.1
20260502233807 58 272 0.0 1.7 0.00 0.00 0.00 82 1011.2
20260502233306 58 347 0.9 1.7 0.00 0.00 0.00 81 1011.1
20260502232806 58 316 0.9 1.7 0.00 0.00 0.00 81 1011.2
20260502232305 58 340 0.0 2.6 0.00 0.00 0.00 82 1011.2
20260502231806 58 321 0.9 2.6 0.00 0.00 0.00 81 1011.3
20260502231305 58 330 0.9 1.7 0.00 0.00 0.00 81 1011.4
20260502230806 58 230 0.0 1.7 0.00 0.00 0.00 81 1011.4
20260502230305 58 338 0.0 1.7 0.00 0.00 0.00 81 1011.5
20260502225806 58 321 0.0 1.7 0.00 0.00 0.00 81 1011.6
20260502224806 58 316 0.0 0.9 0.00 0.00 0.00 82 1011.8
20260502224305 58 309 0.0 1.7 0.00 0.00 0.00 81 1011.9